Home > Weather > Belfast > Past weeks

Flag for United Kingdom Weather for the Past 2 Weeks in Belfast, Northern Ireland, United Kingdom

Now
43 °F

Scattered clouds.


Feels Like: 36 °F
Forecast: N/A
Wind: 13 mph from East

Location: Belfast / Harbour

Current Time: Feb 13, 2016 at 4:33:48 PM

Latest Report: Feb 13, 2016 at 3:50 PM


Visibility: N/A

Pressure: 29.24 "Hg

Humidity: 66%

Dew point: 32 °F

Location of BelfastLocation

Historic Weather in Belfast — Graph

°F

Belfast Temperature Yesterday

Maximum temperature yesterday: 43 °F (at 10:50 AM)
Minimum temperature yesterday: 37 °F (at 6:50 AM)
Average temperature yesterday: 41 °F

High & Low Weather Summary for the Past Weeks

 TemperatureHumidityPressure
High54 °F (Jan 31, 6:50 PM)93% (Feb 11, 6:20 AM)30.24 "Hg (Feb 11, 6:20 AM)
Low30 °F (Feb 11, 6:20 AM)37% (Feb 1, 3:50 PM)28.50 "Hg (Feb 8, 6:20 AM)
Average43 °F71%29.44 "Hg
* Reported Jan 29 3:20 PM — Feb 13 3:20 PM, Belfast, Weather by CustomWeather, © 2016

Note: Actual official high and low records may vary slightly from our data, if they occured in-between our weather recording intervals... More about our weather records

Advertising

Belfast Weather History for the Previous 24 Hours

 ConditionsComfort  
Time TempWeatherWind HumidityBarometerVisibility
3:20 PM
Sat, Feb 13
43 °FScattered clouds.13 mph66%29.24 "HgN/A
2:50 PM41 °FSprinkles. Scattered clouds.13 mph76%29.24 "HgN/A
2:20 PM43 °FSprinkles. Scattered clouds.14 mph71%29.24 "HgN/A
1:50 PM43 °FBroken clouds.13 mph71%29.24 "HgN/A
1:20 PM43 °FBroken clouds.15 mph71%29.24 "HgN/A
12:50 PM43 °FBroken clouds.13 mph71%29.24 "HgN/A
12:20 PM45 °FBroken clouds.13 mph71%29.24 "HgN/A
11:50 AM43 °FBroken clouds.13 mph71%29.24 "HgN/A
11:20 AM41 °FBroken clouds.12 mph76%29.24 "HgN/A
10:50 AM41 °FBroken clouds.15 mph81%29.24 "HgN/A
10:20 AM41 °FBroken clouds.15 mph81%29.24 "HgN/A
9:50 AM39 °FBroken clouds.17 mph87%29.24 "HgN/A
9:20 AM39 °FBroken clouds.16 mph81%29.24 "HgN/A
8:50 AM39 °FBroken clouds.15 mph81%29.24 "HgN/A
8:20 AM39 °FScattered clouds.15 mph81%29.21 "HgN/A
7:50 AM41 °FScattered clouds.15 mph76%29.21 "HgN/A
7:20 AM41 °FPassing clouds.10 mph76%29.21 "HgN/A
6:50 AM41 °FPassing clouds.13 mph76%29.21 "HgN/A
6:20 AM41 °FPassing clouds.13 mph76%29.21 "HgN/A
9:20 PM
Fri, Feb 12
43 °FPartly cloudy.9 mph81%29.33 "HgN/A
8:50 PM43 °FPassing clouds.12 mph81%29.33 "HgN/A
8:20 PM43 °FPassing clouds.8 mph81%29.33 "HgN/A
7:50 PM43 °FPassing clouds.12 mph81%29.36 "HgN/A
7:20 PM43 °FScattered showers. Passing clouds.8 mph81%29.36 "HgN/A
6:50 PM43 °FScattered showers. Passing clouds.9 mph81%29.36 "HgN/A
6:20 PM43 °FScattered showers. Passing clouds.9 mph81%29.36 "HgN/A
5:50 PM43 °FPassing clouds.9 mph81%29.36 "HgN/A
5:20 PM43 °FLight rain. Scattered clouds.8 mph81%29.36 "HgN/A
4:50 PM43 °FLight rain. Scattered clouds.9 mph81%29.36 "HgN/A
4:20 PM43 °FScattered showers. Broken clouds.10 mph81%29.36 "HgN/A
Weather by CustomWeather, © 2016

See weather overviewHow to use our weather pages